This is the latest recevied weather packets stored in our database for station/object IU0SZS-10. If no packets are shown the sender has not sent any weather packets the latest 10 day(s).
| Time | Temp. | Humidity | Pressure | Rain* | Wind** | Luminosity | Snow |
|---|---|---|---|---|---|---|---|
| 1777537727 | 10° C | 71% | 920.5 hPa | - | - | - | - |
| 1777536827 | 10° C | 73% | 920.4 hPa | - | - | - | - |
| 1777535926 | 9.44° C | 73% | 920.2 hPa | - | - | - | - |
| 1777535026 | 9.44° C | 74% | 920 hPa | - | - | - | - |
| 1777534126 | 9.44° C | 77% | 919.9 hPa | - | - | - | - |
| 1777533226 | 8.33° C | 80% | 919.7 hPa | - | - | - | - |
| 1777532326 | 8.89° C | 81% | 919.4 hPa | - | - | - | - |
| 1777531426 | 7.78° C | 84% | 919.4 hPa | - | - | - | - |
| 1777530525 | 7.78° C | 84% | 919.5 hPa | - | - | - | - |
| 1777529625 | 7.22° C | 85% | 919.3 hPa | - | - | - | - |
| 1777528760 | 7.22° C | 86% | 918.9 hPa | - | - | - | - |
| 1777528725 | 7.22° C | 86% | 918.9 hPa | - | - | - | - |
| 1777527825 | 6.67° C | 85% | 918.5 hPa | - | - | - | - |
| 1777526925 | 7.22° C | 86% | 918.4 hPa | - | - | - | - |
| 1777526025 | 7.22° C | 89% | 918.7 hPa | - | - | - | - |
| 1777525161 | 7.78° C | 89% | 918.4 hPa | - | - | - | - |
| 1777525124 | 7.78° C | 89% | 918.4 hPa | - | - | - | - |
| 1777524224 | 7.78° C | 88% | 918.3 hPa | - | - | - | - |
| 1777523324 | 7.78° C | 86% | 918.4 hPa | - | - | - | - |
| 1777522423 | 7.78° C | 85% | 918.2 hPa | - | - | - | - |
| 1777521523 | 7.78° C | 86% | 918.1 hPa | - | - | - | - |
| 1777520623 | 8.33° C | 85% | 918.2 hPa | - | - | - | - |
| 1777519723 | 8.33° C | 85% | 918.1 hPa | - | - | - | - |
| 1777518822 | 8.89° C | 85% | 918.1 hPa | - | - | - | - |
| 1777517922 | 8.89° C | 85% | 918.2 hPa | - | - | - | - |
* Rain since midnight (hover to see other rain measurements)
** Current wind speed in m/s (hover to see current wind gust speed)